STARLINK-32327, 61641

Orbit data source: Space-Track

STARLINK-32327, 61641 is a payload satellite owned by SpaceX/Seattle (US) in LEO that was launched on Wed, 23 Oct 2024 UTC via an FALCON 9 launch vehicle from the Air Force Eastern Test Range (AFETR). Payload-class satellites include a variety of spacecraft equipped with specific instruments for various scientific and technological missions. These include communications satellites like Starlink; space stations such as the ISS; scientific satellites like the Hubble; Earth observation satellites from companies like Planet Labs, Umbra, and HawkEye 360; GPS; miniature CubeSats for education and research; and military/defense satellites.

Loading next visibility...
Identifier
61641, 2024-191W
Orbit
LEO
Last TLE update
12 hours ago
Origin
Manufacturer
SpaceX/Seattle
Mission
Operational Commercial Communications
Bus & Motor
STARLINK V2M, Unknown motor
Mass
730 kg wet, ~700 kg dry
Launch date (UTC)
2024-10-23 (8 months ago)
Launch vehicle
FALCON 9
Launch site
Air Force Eastern Test Range (AFETR)
Object type
Payload
Rocket body
Debris
Shape & HBR
Box + 2 Pan, 29 m
Radar Cross Section
36.964 m², Large (>1 m²)

Expand to show TLE details & history

TLE from 12 hours ago
0 STARLINK-32327
1 61641U 24191W   25182.57435365  .00000424  00000-0  24951-4 0  9996
2 61641  43.0083 132.4828 0002260 269.1180  90.9413 15.27577455 39133
Epoch: 2025-07-01T13:47Z
TLE epoch observation values (Epoch: 2025-07-01T13:47:04.155Z)
Latitude
-0°
Longitude
5.84763°
Altitude
482.859 km
Speed
7.626 km/s
True Right ascension
08h 49m 55s
True Declination
0° 00' 00"
Sunlit
Object was in daylight at epoch
Visualization orbit readout
Latitude
-39.68309°
Longitude
-114.79135°
Altitude
493.549 km
Speed
7.619 km/s
Apparent Right ascension
01h 08m 55s
Apparent Declination
-39° 44' 53"
Sunlit
Object is in daylight
Visualization observer readout
Local Sidereal Time
13:32:13
Azimuth
89.716° E
Elevation
-85.525°
Doppler factor
1
Orbital elements
Apogee altitude
486.552 km
Perigee altitude
483.449 km
Semi-major axis
6,863.137 km
Eccentricity
0.00023
Inclination
43.0083°
RAAN
132.4828°
Arg. of periapsis
269.118°
True anomaly
Unknown
Mean anomaly
90.9413°
Eccentric anomaly
Unknown
Mean motion
3.81732 °/min
Orbital period
94.31 mins
BSTAR
0.000024951
Loading maneuver chart data...
Loading SW <> Apogee altitude chart data...
Loading historical data...
Loading historical data...
Loading historical data...
Loading historical data...
Loading historical data...
Loading historical data...
Loading historical data...

STARLINK-32327 Visibility forecast

Observer location: undefined°, undefined°

Span
Click to sort rows by Start time (UTC) header in descending order
Start Az.
Max El. time (UTC)
Max El. Az.
Max El.
End time (UTC)
End Az.
6 mins2025-07-02 02:40:14.619Z283.215° WNW2025-07-02 02:43:14.619Z2.848° NNE38.121°2025-07-02 02:46:14.619Z72.777° E
5 mins2025-07-02 04:20:14.619Z292.512° NW2025-07-02 04:22:14.619Z354.175° N44.023°2025-07-02 04:25:14.619Z100.641° ESE
5 mins2025-07-02 05:59:14.619Z258.394° W2025-07-02 06:01:14.619Z207.3° SW26.406°2025-07-02 06:04:14.619Z150.952° SSE
4 mins2025-07-02 22:56:14.619Z174.55° S2025-07-02 22:57:14.619Z155.06° SSE18.021°2025-07-02 23:00:14.619Z99.506° ESE
5 mins2025-07-03 00:34:14.619Z244.733° WSW2025-07-03 00:36:14.619Z182.784° SSW44.616°2025-07-03 00:39:14.619Z73.385° E
|